Regional Weather Roundup
Issued by NWS

Home | Current Version | Previous Version | Graphics & Text | Print | Product List | Glossary On
Versions: 1 2 3 4 5 6 7 8 9 10 11 12 13 14 15 16 17 18 19 20 21 22 23 24 25 26 27 28 29 30 31 32 33 34 35 36 37 38 39 40 41 42 43 44 45 46 47 48 49 50
000
ASUS45 KCYS 260510
RWRWY

WYOMING REGIONAL WEATHER ROUNDUP
NATIONAL WEATHER SERVICE CHEYENNE WY
1100 PM MDT THU MAY 25 2017

NOTE:  "FAIR" INDICATES FEW OR NO CLOUDS BELOW 12,000 FEET
WITH NO SIGNIFICANT WEATHER AND/OR OBSTRUCTIONS TO VISIBILITY.

WYZ001-260600-
YELLOWSTONE NATIONAL PARK

CITY           SKY/WX    TMP DP  RH WIND       PRES   REMARKS
LK YELLOWSTONE   N/A     36  24  62 CALM      29.96R
W YELLOWSTONE  NOT AVBL

$$
WYZ002>013-054>058-071-098>099-260600-
NORTHERN WYOMING

CITY           SKY/WX    TMP DP  RH WIND       PRES   REMARKS
JACKSON        FAIR      45  30  57 N14       29.87R
CODY           CLOUDY    48  29  47 CALM      29.93R
GREYBULL       CLOUDY    54  28  36 NW14      29.86R
WORLAND        CLOUDY    53  33  46 NW12      29.88R
SHERIDAN       FAIR      41  37  86 W7        29.89R
BUFFALO        CLOUDY    48  37  65 N14G26    29.90R
GILLETTE       CLOUDY    45  40  82 NW5       29.88R
HULETT         FAIR      45  36  70 W6        29.87S
NEWCASTLE      FAIR      46  32  57 N13       29.87R

$$
WYZ014>020-022>026-101>103-260600-
CENTRAL WYOMING

CITY           SKY/WX    TMP DP  RH WIND       PRES   REMARKS
BIG PINEY      FAIR      39  26  59 NE3       29.91R
PINEDALE       FAIR      34  28  80 N3        29.91R
DUBOIS         CLOUDY    41  30  65 SE13G20   29.90
LANDER         CLOUDY    47  36  65 CALM      29.92R
RIVERTON       CLOUDY    50  29  44 N13       29.91R
CASPER         MOCLDY    47  35  63 E10       29.91R
DOUGLAS        FAIR      44  36  73 CALM      29.92R

$$
WYZ021-027>030-104>119-260600-
SOUTHERN WYOMING

CITY           SKY/WX    TMP DP  RH WIND       PRES   REMARKS
EVANSTON       FAIR      43  25  49 E8        29.89R
KEMMERER         N/A     41  25  52 N3        29.91R
FORT BRIDGER   FAIR      47  23  39 N5        29.93R
ROCK SPRINGS   FAIR      44  27  51 NE7       29.91R
DIXON            N/A     47  38  70 CALM      29.92
RAWLINS        FAIR      45  29  53 N13       29.89R
SARATOGA       CLOUDY    45  36  70 S9        29.91R
LARAMIE        CLOUDY    45  35  68 E7        29.93R
CHEYENNE       FAIR      50  35  56 NW13      29.90R
TORRINGTON     FAIR      52  37  56 N17       29.83R
PINE BLUFFS    FAIR      46  46 100 CALM      29.86R

$$



USA.gov is the U.S. government's official web portal to all federal, state and local government web resources and services.